Wind_Speed
38 38 37 36 35 34 34 33 33 32 31 31 31 31 31 30 30 31 31 31 31 31 31 31 32 33 33 33 33 33 33 34 34 34 34 34 34 33 33 32 32 32 31
39 38 39 37 36 35 35 35 35 34 33 33 32 33 33 32 32 32 32 32 32 33 33 34 34 35 35 35 35 36 36 36 36 35 35 35 35 35 35 34 34 33 33
40 40 39 39 38 37 36 36 36 36 35 35 35 34 34 34 34 33 33 34 34 34 35 35 36 37 37 38 38 38 38 38 38 37 37 37 36 36 36 36 36 35 35
42 41 40 39 39 38 38 38 37 37 37 37 37 36 36 36 35 35 34 35 36 37 37 38 38 39 39 39 40 40 40 40 40 39 39 39 39 38 38 38 38 37 37
44 43 43 41 41 40 39 39 39 39 38 38 38 38 38 37 37 37 37 37 37 38 39 40 40 40 41 41 42 42 42 42 42 41 41 42 41 41 40 40 39 38 37
44 44 44 43 42 42 41 41 41 40 40 40 40 40 39 39 38 39 39 39 40 40 41 42 43 43 44 44 45 45 45 45 45 45 44 44 44 43 42 41 40 39 38
44 45 45 43 43 43 42 42 42 42 42 42 42 42 41 41 41 41 42 42 42 43 44 44 44 45 45 46 47 48 48 48 48 47 46 46 45 44 43 42 41 40 39
46 44 44 44 44 43 43 43 43 43 43 43 43 43 43 43 42 42 43 44 45 46 46 45 45 45 46 48 48 49 49 50 49 49 48 47 47 46 45 43 42 41 39
47 46 44 43 43 44 44 44 44 44 44 44 44 45 45 44 44 44 46 46 46 46 46 46 46 47 48 49 50 51 51 51 51 51 50 49 48 47 45 44 43 40 39
47 46 46 45 43 43 43 43 44 45 45 45 45 45 46 46 46 46 46 46 46 46 46 46 47 48 49 51 51 51 51 51 51 50 50 49 48 46 44 43 42 40 38
45 46 46 45 45 45 44 44 44 45 45 46 46 46 46 46 47 47 46 45 46 46 47 47 48 49 50 50 50 51 51 51 51 50 48 47 45 44 42 41 40 39 38
41 43 43 44 45 45 45 45 45 46 47 47 47 46 45 46 47 47 46 46 46 46 48 49 49 49 49 50 49 50 50 50 50 49 48 46 43 41 40 39 39 39 38
39 40 41 42 43 45 46 46 46 47 47 47 45 44 44 45 46 47 47 47 47 47 48 48 48 48 48 49 49 48 47 47 47 46 45 44 42 39 39 38 38 36 37
36 36 38 39 41 43 45 45 45 44 44 44 44 45 45 44 46 48 47 47 47 48 49 48 48 49 49 48 48 47 46 46 45 44 44 43 41 39 38 37 36 35 35
33 35 37 39 39 40 39 39 40 41 42 43 45 45 45 44 45 46 46 47 48 49 49 49 49 48 48 48 48 47 47 46 45 44 42 40 40 39 37 37 35 34 34
31 33 35 37 38 38 39 39 39 40 41 43 45 45 44 44 45 46 47 48 50 51 50 49 49 49 49 48 47 47 47 46 44 41 40 39 38 38 37 36 36 34 33
30 32 33 33 36 37 37 38 39 40 41 42 43 44 45 45 46 47 49 50 50 51 50 48 48 49 49 48 48 47 47 46 43 41 40 38 37 36 36 36 35 34 33
28 29 30 31 34 35 36 37 37 39 39 39 41 42 44 45 45 46 48 49 50 50 50 48 48 48 48 47 46 45 43 41 40 39 38 37 36 36 35 36 35 34 33
26 28 29 30 32 34 36 36 37 37 37 37 39 40 42 44 45 46 47 48 48 48 48 48 47 46 46 45 43 42 40 39 38 37 37 36 35 35 34 35 36 35 34
25 26 28 29 31 33 35 36 37 37 36 37 39 40 42 42 43 44 45 46 46 46 46 46 45 43 42 42 39 37 37 37 36 37 37 35 34 33 33 34 35 34 33
25 26 27 29 31 33 35 36 37 37 37 37 39 40 41 41 42 44 44 43 43 43 44 45 44 42 40 38 36 35 34 35 35 35 36 34 33 33 32 33 34 33 32
24 26 28 30 32 34 36 35 36 38 39 39 38 39 40 40 41 41 42 41 41 41 42 42 42 40 37 35 33 33 35 35 35 34 34 33 33 33 34 34 33 31 29
25 27 29 31 33 35 34 35 35 37 39 40 40 39 40 40 40 40 40 39 39 39 40 40 39 37 36 34 33 34 34 35 34 33 33 32 33 34 34 33 31 29 29
25 27 29 31 33 33 32 32 34 36 37 38 40 40 40 40 40 40 40 39 39 38 38 37 35 35 36 34 32 32 32 33 32 31 30 31 32 32 31 31 30 29 28
24 25 27 29 29 29 30 31 33 34 34 35 37 38 39 38 38 38 37 37 36 35 35 34 33 33 33 32 31 31 31 31 31 30 28 28 28 29 29 29 28 28 27
25 25 26 27 27 28 29 31 32 33 34 34 35 36 37 37 38 37 35 35 35 35 34 33 32 31 31 32 31 30 29 28 28 29 27 26 26 27 27 27 27 27 26
Wind_Direction
249 249 250 250 251 251 253 256 259 259 260 262 263 265 268 270 271 272 273 275 276 277 279 280 282 283 284 285 286 288 290 292 294 294 293 293 293 293 295 297 298 299 299
248 248 248 249 251 253 254 256 258 260 261 263 265 266 268 269 270 272 273 275 276 277 278 280 282 282 283 285 285 286 288 290 293 293 292 292 291 292 293 294 296 296 296
247 248 249 249 250 252 253 255 258 261 263 264 265 266 268 269 270 272 273 275 276 277 279 281 282 282 283 283 284 285 286 288 290 291 291 291 290 290 292 293 294 295 295
247 248 249 249 249 251 253 255 258 260 262 264 265 266 267 269 270 272 273 276 277 278 279 280 281 282 283 283 283 285 286 287 288 289 290 290 290 290 291 291 291 293 292
247 248 248 249 250 251 254 255 257 260 262 265 266 266 267 269 270 271 274 276 278 279 280 280 280 281 282 283 284 285 286 287 287 288 289 290 289 289 290 290 289 290 290
247 247 248 249 251 252 254 255 257 261 263 265 266 267 268 269 271 272 275 277 278 279 280 280 280 281 281 282 283 284 285 285 285 287 289 289 288 288 288 288 288 287 288
246 247 247 249 251 253 254 256 258 261 264 265 265 267 268 270 273 274 276 277 278 279 280 280 280 280 280 281 282 283 283 284 284 285 287 288 287 287 286 286 286 285 286
245 247 248 249 251 253 254 255 257 260 263 266 267 269 270 270 272 274 276 277 278 280 279 279 280 280 281 281 282 282 283 283 283 283 284 285 286 285 284 283 282 283 284
245 246 248 248 250 253 255 256 259 260 263 266 268 270 271 273 273 274 276 277 278 278 278 278 279 280 281 282 282 282 283 282 281 282 283 283 284 283 282 280 279 279 279
245 246 247 248 251 252 254 257 259 262 264 266 269 271 273 275 277 276 276 277 277 277 278 279 280 281 282 282 282 282 282 281 280 281 282 282 282 280 280 278 277 275 276
246 247 248 249 251 252 254 257 261 263 265 267 269 272 274 275 276 277 278 278 277 277 278 279 280 281 283 282 282 282 282 282 280 280 280 280 279 278 278 275 274 274 273
248 249 249 251 253 253 255 258 261 264 265 267 269 271 273 275 277 278 278 278 277 277 278 279 280 281 281 282 283 283 283 283 281 279 278 278 277 277 275 273 275 274 272
249 251 250 253 254 256 258 260 261 264 266 267 270 272 273 276 277 278 279 279 279 279 279 280 281 281 282 282 283 282 283 284 283 280 277 276 276 276 275 274 274 273 270
249 252 253 254 256 258 260 263 264 265 268 268 270 272 274 275 277 279 280 280 280 280 281 281 281 282 282 282 281 280 282 283 281 279 277 275 274 273 273 272 271 272 268
254 256 255 256 258 259 262 264 267 268 268 268 269 271 273 276 278 280 280 281 282 284 284 284 284 284 283 282 281 280 280 280 279 279 275 273 272 271 272 271 270 270 266
258 259 259 258 258 259 262 265 268 268 269 271 271 272 275 277 279 279 280 280 281 284 285 285 285 284 283 283 282 281 279 278 278 276 271 270 269 269 270 269 268 267 265
258 260 262 264 261 261 264 266 269 270 272 273 274 275 276 278 278 278 279 280 282 283 284 286 287 284 281 280 280 280 278 276 275 273 270 269 267 268 267 263 263 263 262
261 262 264 266 267 266 268 269 271 273 274 275 276 277 278 279 280 279 280 281 282 283 284 285 286 285 281 278 278 278 276 275 272 272 269 268 266 266 264 260 260 260 259
266 266 267 269 272 273 273 272 273 274 274 277 280 280 280 281 281 281 281 281 282 283 284 286 286 283 280 279 278 276 274 272 270 269 267 267 266 266 262 258 259 258 258
272 273 273 275 278 280 278 275 275 275 276 279 281 282 283 283 283 283 283 284 283 283 285 287 286 284 280 278 277 273 271 272 270 268 267 265 265 262 259 258 257 255 255
275 276 278 280 282 283 282 279 277 277 278 280 281 282 283 285 287 286 285 285 284 284 286 287 286 284 281 278 276 272 269 268 267 267 266 263 261 259 259 257 256 253 252
281 282 283 285 286 287 284 281 281 280 280 281 281 283 284 286 287 288 288 286 285 286 287 287 284 282 280 277 274 270 267 266 266 265 262 260 259 258 257 257 254 249 249
288 289 290 289 290 291 288 284 283 284 283 283 282 283 285 286 286 286 287 286 287 288 287 287 285 281 277 274 272 270 268 265 264 262 259 258 259 259 258 254 251 249 250
294 295 295 295 294 293 290 289 288 287 284 284 283 283 284 284 284 285 286 286 286 288 289 288 285 280 276 273 272 270 269 268 265 262 259 260 256 255 255 251 249 248 248
299 299 301 300 298 296 294 293 293 292 290 288 286 286 286 286 287 287 286 286 286 288 289 287 284 279 274 271 269 267 268 267 263 259 257 256 252 253 251 246 246 246 246
302 303 304 303 302 299 296 296 296 296 295 291 288 289 289 289 290 290 288 287 286 288 288 286 281 276 272 270 269 266 267 265 261 257 255 254 254 253 248 244 244 244 243
Height
5817 5819 5821 5822 5824 5825 5827 5828 5829 5829 5829 5830 5830 5830 5830 5829 5829 5828 5828 5827 5826 5825 5824 5823 5822 5820 5819 5817 5816 5814 5812 5810 5808 5806 5804 5802 5800 5798 5796 5794 5792 5790 5788
5809 5811 5813 5815 5817 5819 5820 5821 5822 5823 5823 5824 5824 5823 5823 5823 5822 5822 5821 5821 5820 5819 5818 5817 5815 5813 5812 5810 5809 5807 5805 5803 5801 5799 5797 5795 5793 5791 5789 5787 5785 5783 5781
5802 5804 5806 5808 5810 5811 5813 5814 5815 5816 5817 5817 5817 5817 5816 5816 5815 5815 5814 5814 5813 5812 5811 5809 5808 5806 5805 5803 5801 5799 5797 5795 5793 5791 5789 5787 5785 5783 5781 5779 5778 5776 5774
5793 5796 5798 5800 5802 5804 5805 5807 5808 5809 5809 5809 5810 5809 5809 5809 5808 5808 5807 5806 5805 5804 5803 5802 5800 5798 5796 5794 5793 5791 5789 5787 5785 5783 5781 5779 5777 5775 5773 5771 5769 5768 5766
5785 5787 5790 5792 5794 5796 5798 5799 5800 5801 5802 5802 5802 5802 5801 5801 5801 5800 5799 5798 5797 5796 5794 5793 5791 5789 5787 5785 5784 5782 5780 5778 5776 5774 5772 5770 5768 5766 5764 5762 5760 5759 5757
5776 5779 5781 5784 5786 5788 5790 5791 5792 5793 5793 5793 5793 5793 5793 5793 5792 5792 5791 5790 5788 5786 5784 5783 5781 5779 5777 5775 5773 5771 5770 5768 5767 5764 5762 5760 5758 5756 5754 5752 5750 5749 5748
5767 5770 5773 5775 5777 5779 5781 5783 5784 5784 5784 5784 5785 5785 5785 5785 5784 5783 5782 5780 5778 5776 5774 5772 5770 5768 5766 5764 5762 5760 5758 5757 5755 5753 5751 5749 5747 5745 5743 5741 5740 5739 5738
5758 5761 5764 5766 5769 5771 5772 5774 5775 5775 5776 5775 5776 5776 5776 5777 5775 5774 5772 5770 5768 5766 5763 5761 5759 5757 5755 5753 5751 5748 5746 5744 5743 5741 5739 5737 5735 5733 5731 5730 5729 5728 5728
5749 5752 5755 5757 5760 5762 5763 5765 5766 5766 5767 5767 5766 5766 5765 5766 5765 5765 5762 5759 5757 5754 5752 5750 5748 5745 5743 5740 5738 5736 5733 5731 5729 5728 5726 5724 5722 5720 5719 5717 5717 5717 5717
5740 5742 5745 5748 5750 5753 5754 5755 5756 5756 5757 5757 5756 5756 5755 5754 5753 5753 5752 5748 5745 5742 5740 5738 5735 5732 5730 5727 5724 5722 5720 5717 5715 5713 5712 5710 5708 5707 5705 5705 5705 5705 5706
5730 5733 5736 5738 5741 5743 5745 5746 5746 5746 5746 5746 5746 5745 5744 5742 5740 5739 5739 5738 5734 5731 5728 5725 5722 5720 5716 5713 5710 5708 5705 5703 5700 5698 5697 5696 5695 5694 5693 5692 5693 5693 5695
5721 5723 5726 5728 5730 5732 5734 5735 5735 5735 5735 5735 5735 5734 5733 5731 5730 5728 5726 5724 5722 5721 5717 5713 5709 5706 5703 5699 5696 5694 5691 5688 5686 5684 5683 5683 5682 5682 5681 5681 5682 5682 5684
5711 5714 5716 5718 5720 5722 5723 5723 5724 5724 5724 5724 5724 5723 5722 5720 5718 5716 5713 5711 5709 5708 5705 5701 5697 5693 5689 5686 5683 5680 5677 5675 5673 5671 5670 5671 5671 5671 5671 5671 5671 5672 5674
5702 5704 5705 5707 5709 5710 5712 5712 5713 5713 5713 5713 5713 5712 5710 5709 5707 5704 5701 5698 5696 5695 5692 5689 5685 5680 5676 5672 5670 5667 5664 5663 5661 5659 5658 5659 5659 5660 5660 5661 5661 5662 5663
5693 5694 5695 5696 5698 5700 5701 5702 5702 5703 5702 5702 5702 5701 5699 5697 5695 5692 5688 5685 5682 5679 5678 5676 5671 5667 5663 5660 5657 5654 5652 5651 5649 5648 5647 5647 5648 5649 5649 5650 5652 5653 5654
5683 5684 5685 5687 5689 5690 5691 5692 5692 5692 5691 5690 5689 5688 5686 5684 5682 5679 5676 5673 5669 5665 5663 5661 5657 5654 5649 5647 5644 5642 5640 5638 5637 5636 5636 5636 5637 5638 5639 5640 5642 5643 5645
5676 5676 5677 5678 5679 5680 5681 5681 5681 5680 5679 5678 5677 5675 5674 5672 5669 5666 5663 5660 5656 5652 5649 5647 5643 5639 5636 5634 5631 5629 5627 5626 5625 5625 5625 5625 5626 5627 5628 5630 5632 5634 5636
5668 5669 5669 5669 5670 5670 5671 5671 5670 5669 5667 5666 5664 5663 5661 5659 5656 5653 5650 5647 5643 5639 5635 5632 5629 5625 5622 5620 5618 5616 5615 5613 5614 5614 5614 5614 5615 5617 5618 5620 5623 5625 5627
5661 5662 5662 5661 5661 5661 5660 5659 5659 5657 5656 5654 5652 5651 5649 5646 5643 5640 5637 5633 5630 5626 5622 5619 5616 5612 5610 5607 5605 5604 5603 5602 5603 5603 5603 5604 5605 5607 5609 5611 5613 5616 5618
5655 5654 5654 5654 5652 5651 5650 5648 5647 5646 5645 5643 5642 5639 5637 5634 5631 5628 5624 5621 5617 5614 5610 5606 5603 5600 5598 5595 5593 5592 5592 5592 5593 5593 5594 5595 5596 5598 5600 5602 5604 5607 5609
5648 5648 5647 5646 5644 5643 5641 5639 5637 5635 5634 5632 5630 5628 5625 5622 5619 5616 5612 5609 5605 5601 5598 5595 5591 5588 5586 5585 5583 5583 5582 5582 5583 5584 5585 5586 5588 5589 5591 5593 5595 5598 5600
5642 5641 5640 5638 5636 5634 5631 5628 5626 5624 5622 5621 5619 5616 5613 5611 5607 5604 5600 5596 5593 5590 5587 5583 5580 5577 5576 5575 5574 5573 5573 5573 5574 5576 5576 5577 5579 5580 5582 5584 5587 5589 5592
5635 5634 5632 5629 5627 5624 5621 5618 5615 5613 5611 5609 5607 5605 5602 5599 5596 5593 5589 5585 5582 5579 5575 5572 5568 5566 5565 5565 5565 5564 5564 5564 5565 5566 5567 5568 5570 5572 5574 5576 5578 5581 5583
5628 5626 5624 5621 5618 5615 5612 5609 5606 5603 5600 5598 5596 5593 5590 5587 5584 5581 5578 5575 5572 5568 5565 5561 5558 5557 5555 5555 5555 5555 5554 5554 5555 5556 5557 5559 5561 5563 5565 5567 5570 5572 5575
5622 5619 5616 5613 5609 5606 5603 5600 5597 5594 5591 5588 5585 5582 5579 5576 5574 5571 5567 5564 5561 5558 5554 5551 5549 5547 5546 5546 5546 5546 5546 5546 5546 5547 5549 5551 5552 5554 5557 5559 5562 5564 5567
5615 5612 5609 5605 5601 5598 5596 5592 5589 5585 5582 5578 5575 5572 5569 5566 5562 5559 5556 5553 5551 5548 5545 5542 5540 5538 5537 5537 5537 5537 5538 5538 5538 5540 5541 5543 5545 5547 5549 5552 5554 5557 5560